Main page
METAR-TAF:

METAR-TAF

Airports :

Persian Gulf Airport

Asaluyeh, Iran

latitude: 27-22-46N, longitude: 52-44-15E, elevation: 8 m

Current weather observation

The report was made 49 minutes ago, at 09:30 UTC
Wind 6 kt from the West/Northwest
Temperature 28°C
Humidity 51%
Pressure 1014 hPa
Visibility 10 km or more
no clouds below 1500 m and no cumulonimbus

METAR: OIBP 190930Z 29006KT CAVOK 28/17 Q1014 A2995

Time: 13:49 (10:19 UTC)


TAF: missing

Weather observations and forecasts of more than 4000 airports (METAR and TAF reports).

The available stations are represented by yellow and red dots on the map.

Hover mouse over dot to see the name of the station.

Then click to see weather observations and forecasts.

To change the map : click on the green buttons with a black cross to zoom in, on the green button with a dash to zoom out, or on the green arrows for adjacent maps.


METAR-TAF: